Location: Ellerstadt
(49.4644°N, 8.2615°E)
Time: 01:47:23
(UTC+00:00)

ISS - Pass Details

Date: 24 May 2021
Orbit: 417 x 422 km, 51.6° (Epoch: 15 June)

Event Time Altitude Azimuth Distance (km) Brightness Sun altitude
Rises 20:58:21 0° 286° (WNW) 2,368 0.9 -12.5°
Reaches altitude 10° 21:00:28 10° 288° (WNW) 1,504 -0.1 -12.7°
Maximum altitude 21:03:50 78° 15° (NNE) 434 -3.7 -13.0°
Enters shadow 21:06:27 16° 101° (ESE) 1,197 -1.9 -13.3°
